           7 14  03 39.31  +76 51.9   5.886  6.428    14.2 / 288  17.4  121  .33

           8 14  03 35.35  +76 56.2   5.882  6.428    14.2 / 287  17.4  114  .44

           9 14  03 31.33  +77 00.2   5.879  6.429    14.2 / 285  17.4  106  .56

          10 14  03 27.27  +77 03.8   5.876  6.430    14.2 / 284  17.4   97  .67

          11 14  03 23.16  +77 07.0   5.873  6.430    14.1 / 282  17.4   88  .77

          12 14  03 19.01  +77 09.9   5.870  6.431    14.1 / 280  17.4   79  .86

          13 14  03 14.82  +77 12.3   5.867  6.431    14.1 / 279  17.4   71  .93

          14 14  03 10.61  +77 14.3   5.865  6.432    14.1 / 277  17.4   63  .97

          15 14  03 06.38  +77 16.0   5.863  6.432    14.1 / 276  17.4   57 1.00

          16 14  03 02.13  +77 17.2   5.861  6.433    14.1 / 274  17.4   54 1.00

          17 14  02 57.88  +77 18.0   5.860  6.434    14.0 / 272  17.4   52  .97

          18 14  02 53.62  +77 18.5   5.859  6.434    14.0 / 271  17.4   53  .93

          19 14  02 49.37  +77 18.5   5.858  6.435    14.0 / 269  17.4   56  .87

          20 14  02 45.13  +77 18.1   5.857  6.435    13.9 / 267  17.4   60  .80

          21 14  02 40.91  +77 17.4   5.856  6.436    13.9 / 266  17.4   66  .71

          22 14  02 36.71  +77 16.2   5.856  6.437    13.9 / 264  17.4   73  .63

          23 14  02 32.54  +77 14.7   5.856  6.437    13.8 / 263  17.4   80  .53

          24 14  02 28.41  +77 12.8   5.857  6.438    13.8 / 261  17.4   87  .44

          25 14  02 24.32  +77 10.5   5.857  6.439    13.7 / 259  17.4   94  .35

          26 14  02 20.28  +77 07.8   5.858  6.439    13.7 / 258  17.4  102  .26

          27 14  02 16.29  +77 04.8   5.859  6.440    13.6 / 256  17.4  109  .18

          28 14  02 12.36  +77 01.4   5.860  6.441    13.6 / 255  17.4  115  .11

          29 14  02 08.50  +76 57.7   5.862  6.441    13.5 / 253  17.4  121  .05

          30 14  02 04.69  +76 53.6   5.863  6.442    13.5 / 252  17.4  125  .01

     Dec.  1 14  02 00.96  +76 49.3   5.865  6.443    13.4 / 250  17.4  126  .00

           2 14  01 57.30  +76 44.6   5.868  6.443    13.3 / 249  17.4  125  .01

           3 14  01 53.72  +76 39.7   5.870  6.444    13.2 / 247  17.4  122  .05

           4 14  01 50.22  +76 34.4   5.873  6.445    13.2 / 246  17.4  117  .11

           5 14  01 46.80  +76 28.9   5.876  6.446    13.1 / 244  17.4  110  .20

NAKANO

         **** Don't distribute anyone except personal use only ****

                (C) Copyright 2005 OAA/ComputingSection

write mail from CFAD0::NAKANO on 2005-11-09 04:38:54(JST).

 

    C/2005 Q1 (LINEAR)

T 2005 Aug. 25.73985 TT                                 Nakano

q   6.4058871            (2000.0)            P               Q

                   Peri.   44.71156     +0.21240988     +0.15821011

                   Node    87.72798     +0.37472691     -0.92455308

e   1.0            Incl.  105.19338     +0.90247537     +0.34665714

From 71 observations 2005 Aug. 27-Oct. 21.



NAKANO

         **** Don't distribute anyone except personal use only ****

                (C) Copyright 2005 OAA/ComputingSection

write mail from CFAD0::NAKANO on 2005-11-03 23:39:18(JST).

 



    C/2005 Q1 (LINEAR)

T 2005 Aug. 26.75384 TT                                 Nakano

q   6.4059539            (2000.0)            P               Q

                   Peri.   44.80215     +0.21264719     +0.15818722

                   Node    87.74114     +0.37332012     -0.92510034

e   1.0            Incl.  105.20591     +0.90300236     +0.34520452

From 51 observations 2005 Aug. 27-Sept. 26.



NAKANO

         **** Don't distribute anyone except personal use only ****

                (C) Copyright 2005 OAA/ComputingSection

write mail from CFAD0::NAKANO on 2005-10-01 02:43:05(JST).

 





    C/2005 Q1 (LINEAR)

T 2005 Aug. 9.89774 TT                                  Nakano

q   6.4060813            (2000.0)            P               Q

                   Peri.   43.33034     +0.20860391     +0.16154193

                   Node    87.65653     +0.39660665     -0.91549984

e   1.0            Incl.  105.12170     +0.89397291     +0.36846200

From 36 observations 2005 Aug. 27-Sept. 3.



NAKANO

         **** Don't distribute anyone except personal use only ****

                (C) Copyright 2005 OAA/ComputingSection

write mail from CFAD0::NAKANO on 2005-09-12 05:45:24(JST).

 



戻ります。